AirNav   Everest Fuels
 
 485 users online  

53T Cannon Field Airport
Somerset, Texas, USA

GOING TO SOMERSET?


FAA INFORMATION EFFECTIVE 16 JULY 2020

Location

FAA Identifier: 53T
Lat/Long: 29-12-57.8640N 098-32-58.0630W
29-12.964400N 098-32.967717W
29.2160733,-98.5494619
(estimated)
Elevation: 610 ft. / 186 m (estimated)
Variation: 07E (1985)
From city: 6 miles E of SOMERSET, TX
Time zone: UTC -5 (UTC -6 during Standard Time)
Zip code: 78264

Airport Operations

Airport use: Open to the public
Activation date: 09/1983
Control tower: no
ARTCC: HOUSTON CENTER
FSS: SAN ANGELO FLIGHT SERVICE STATION
NOTAMs facility: SJT (NOTAM-D service available)
Attendance: CONTINUOUS
FOR ARPT ATTENDANT CALL 210-842-0429.
Wind indicator: yes
Segmented circle: no

Airport Communications

CTAF/UNICOM: 123.0
WX ASOS at SSF (8 nm NE): PHONE 210-927-9391
WX AWOS-3 at PEZ (16 nm S): 118.575 (830-569-5749)
WX AWOS-3 at CVB (18 nm NW): 119.25 (830-931-0232)
WX ASOS at SAT (20 nm N): PHONE 210-805-5583

Nearby radio navigation aids

VOR radial/distance  VOR name  Freq  Var
SSFr236/(6.1)STINSON VOR108.4009E
RNDr212/22.8RANDOLPH VORTAC112.3005E
SATr182/26.1SAN ANTONIO VORTAC116.8008E

 
NDB name  Hdg/Dist  Freq  Var  ID
DEVINE070/20.935907EHHH .... .... ....
HONDO098/33.932908EHMA .... -- .-

Airport Services

Airframe service: NONE
Powerplant service: NONE

Runway Information

Runway 16/34

Dimensions: 2880 x 100 ft. / 878 x 30 m
ROLLING GRADIENT ENTIRE LENGTH OF RY NOT VISIBLE FM ENDS.
Surface: turf, in good condition
Runway edge markings: RWY OUTLINED WITH ROUND WHITE CONCRETE MARKERS.
RUNWAY 16  RUNWAY 34
Traffic pattern: leftright
Displaced threshold: 200 ft.300 ft.
Markings: NSTD
Obstructions: 4 ft. fence, 105 ft. right of centerline
RY 16 0:1 AT DSPLCD THR DUE TO 4 FT FENCE APPROX 105 FT R OF CNTRLN
49 ft. tree, 100 ft. left of centerline
RY 34 0:1 AT DSPLCD THR DUE TO +4 FT FENCE 51 FT R OF CNTRLN

Airport Ownership and Management from official FAA records

Ownership: Privately-owned
Owner: ALAMO LIAISON GROUP
2352 S LOOP 1604 W
SAN ANTONIO, TX 78264-3719
Phone 210-624-2226
Manager: RICHARD ROBERTS
2352 S LOOP 1604 W
SAN ANTONIO, TX 78264-3719
Phone 210-624-2226

Airport Operational Statistics

Aircraft based on the field: 13
Single engine airplanes: 13
    
Aircraft operations: avg 21/week *
91% local general aviation
9% transient general aviation
* for 12-month period ending 01 February 2017

Additional Remarks

WILDLIFE ON & INVOF ARPT.
+30 FT MARKED POWERLINE 500 FT ACROSS RY CNTRLN.
RYS 16 & 34 DISPLACED THLDS MARKED WITH WHITE PAINTED BARRELS.
RY 16/34 SOUTH HALF ROUGH EDGES.
RY 16 +4 FT FENCE 105 FT R PARALLEL TO RY; +6-10 FT TREES IN FENCE ROW 105 FT R OF CNTRLN.
RY 34 +4 FT FENCE 51 FT RIGHT PARALLEL TO RY.
FOR CD CTC SAN ANTONIO APCH AT 210-805-5516.

Instrument Procedures

There are no published instrument procedures at 53T.

Some nearby airports with instrument procedures:

KSSF - Stinson Municipal Airport (8 nm NE)
KSKF - Kelly Field Airport (10 nm N)
KPEZ - Pleasanton Municipal Airport (16 nm S)
KCVB - Castroville Municipal Airport (18 nm NW)
KSAT - San Antonio International Airport (20 nm N)
 
Loc | Ops | Rwys | IFR | FBO | Links
Com | Nav | Svcs | Stats | Notes
Area around 53T (Cannon Field Airport)
 
Road maps at: MapQuest Bing Google
 
Aerial photo
WARNING: Photo may not be current or correct
Aerial photo of 53T (Cannon Field Airport)
Photo taken 11-Jun-2010

Do you have a better or more recent aerial photo of Cannon Field Airport that you would like to share? If so, please send us your photo.

 
Sectional chart

 
Airport distance calculator
Flying to Cannon Field Airport? Find the distance to fly.

From to 53T

Sunrise and sunset
Times for 12-Aug-2020
 Local
(UTC-5)
 Zulu
(UTC)
Morning civil twilight06:3711:37
Sunrise07:0212:02
Sunset20:1601:16
Evening civil twilight20:4101:41

Current date and time
Zulu (UTC)  12-Aug-2020 06:12:37
Local (UTC-5)  12-Aug-2020 01:12:37
 
METAR
KSSF 
8nm NE 
120553Z AUTO 16009KT 10SM CLR 27/23 A2994 RMK AO2 SLP125 T02720228 10361 20272 51013 $
KSKF 
9nm N 
120556Z AUTO 16011KT 10SM CLR 28/23 A2995 RMK AO2 SLP133 T02800229 10371 20280 403820254 52012 $
KPEZ 
16nm S 
120555Z AUTO 16006KT 10SM CLR 28/24 A2996 RMK AO2 T02820238 10372 20282 403910257
KCVB 
17nm NW 
120555Z AUTO 15006KT 10SM CLR 29/22 A2998 RMK AO2 T02930220 10381 20293 403910255
KSAT 
20nm N 
120551Z 17010KT 10SM CLR 28/22 A2997 RMK AO2 SLP128 T02830222 10372 20283 403780261 51014
TAF
KSSF 
8nm NE 
120531Z 1206/1306 15010KT P6SM SKC FM120900 14008KT P6SM BKN015 FM121500 19012KT P6SM SCT040 FM122200 17010KT P6SM FEW070 FM130200 15013KT P6SM SKC
KSKF 
9nm N 
120200Z 1202/1308 15011KT 9999 SKC QNH2988INS TEMPO 1202/1204 13015G25KT BECMG 1208/1209 16006KT 9999 BKN012 QNH2993INS TEMPO 1210/1213 SCT012 BECMG 1213/1214 17009KT 9999 SCT030 QNH2982INS TEMPO 1301/1304 14015G25KT TX39/1222Z TN25/1211Z LAST NO AMDS AFT 1204 NEXT 1210
KSAT 
20nm N 
120559Z 1206/1312 15010KT P6SM SKC FM120900 17008KT P6SM BKN015 FM121500 19012G20KT P6SM SCT040 FM122200 17010KT P6SM FEW070 FM130200 16014KT P6SM SKC
NOTAMs
Click for the latest NOTAMs
NOTAMs are issued by the DoD/FAA and will open in a separate window not controlled by AirNav.

 

 
 

Would you like to see your business listed on this page?

 If your business provides an interesting product or service to pilots, flight crews, aircraft, or users of the Cannon Field Airport, you should consider listing it here.  To start the listing process, click on the button below
 
Add a business
 

Other Pages about Cannon Field Airport

Update a link
 
Copyright © AirNav, LLC. All rights reserved. Privacy Policy  Contact